EHI
23 23 21 18 15 14 18 20 19 16 14 12 12 14 14 13 11 11 9 8 8 8 9 10 8 6 5 6 5 4 2 1 1 1 2 3 3 4 4 4 4 4 4
25 25 24 23 21 20 22 23 22 20 19 15 13 14 14 13 12 12 11 9 9 9 10 10 7 8 9 8 5 3 1 1 1 2 3 4 4 4 4 4 4 4 4
30 30 30 30 31 30 29 27 25 26 24 20 17 16 15 14 13 12 12 11 9 9 10 9 7 9 12 9 5 3 2 3 4 4 4 6 6 5 5 4 5 6 6
34 33 34 36 38 38 35 32 31 30 27 24 21 18 16 14 12 10 10 10 9 9 10 9 9 10 10 7 5 5 6 7 9 8 6 6 8 7 5 4 5 8 8
36 35 35 37 40 40 39 37 36 33 29 26 24 19 14 11 9 7 7 8 9 9 10 11 11 9 6 4 4 6 9 11 13 13 9 8 9 8 6 4 6 8 8
41 39 37 36 37 38 39 38 37 34 31 28 24 18 13 10 6 4 5 8 9 9 11 12 10 6 4 4 3 3 6 8 11 13 13 12 12 10 7 6 7 9 8
46 44 42 39 36 37 38 38 35 32 30 27 22 17 14 10 5 3 4 7 9 10 12 13 10 7 8 9 7 5 5 6 7 10 13 14 14 13 10 8 8 8 8
47 46 44 42 39 38 39 37 31 27 25 23 20 18 16 11 5 2 2 5 9 12 13 14 12 11 11 12 12 12 11 9 6 6 9 10 10 11 11 10 8 7 6
47 45 43 41 39 36 36 33 26 22 20 20 19 19 18 14 7 2 2 6 10 13 15 14 13 12 11 10 12 15 15 13 9 6 5 5 4 5 7 7 6 5 4
44 43 40 38 35 31 30 27 22 19 18 16 16 18 19 17 10 4 3 9 13 14 15 14 11 8 6 6 8 12 14 14 12 9 6 4 3 3 4 4 5 4 3
37 35 33 31 28 25 24 23 21 18 16 15 15 15 16 16 11 4 3 8 11 12 13 13 10 5 2 2 4 7 9 10 12 12 10 8 8 7 5 6 6 4 3
31 29 26 23 21 20 20 22 21 19 17 16 16 14 13 12 9 5 3 3 6 8 11 12 9 4 1 0 1 3 3 4 9 11 12 13 13 11 8 8 7 5 4
27 25 22 19 18 18 18 19 19 19 19 18 16 14 12 11 10 8 5 3 2 4 8 9 6 3 1 0 0 0 0 2 6 11 12 13 14 13 10 8 7 6 5
24 22 20 18 17 17 16 17 17 18 18 17 14 13 12 12 11 10 9 7 4 4 6 5 4 3 2 1 1 1 1 2 5 9 11 12 12 12 9 7 6 5 5
20 20 18 16 15 14 14 14 14 14 13 12 10 10 10 10 8 7 8 7 6 5 5 5 4 4 4 4 4 3 3 2 3 6 9 10 10 8 6 4 3 3 2
17 18 17 14 12 12 12 11 9 8 6 5 5 5 5 4 3 2 2 3 3 3 4 5 5 5 5 5 5 5 4 3 2 2 4 7 6 4 2 2 1 1 0
14 15 15 13 12 12 12 11 8 5 3 2 1 1 1 0 0 0 0 0 0 1 2 3 4 4 3 3 4 5 4 3 3 2 2 3 3 2 1 0 0 0 0
13 14 14 14 13 12 12 12 10 7 6 5 2 0 0 0 0 0 0 0 0 0 1 1 1 1 1 1 2 3 3 3 3 2 2 2 2 2 1 0 0 0 0
13 13 13 12 11 11 11 11 11 10 9 8 6 3 1 0 0 0 0 0 0 1 1 0 0 0 0 0 1 2 3 3 3 3 2 3 3 3 2 1 0 0 0
11 11 9 9 9 9 10 10 11 12 11 9 8 6 3 2 2 1 0 0 1 2 2 1 0 0 0 0 0 2 3 4 5 5 5 5 5 4 3 1 1 1 1
8 8 7 7 7 9 9 10 11 12 10 8 7 6 4 4 4 4 2 1 1 3 3 2 1 1 1 0 0 2 3 4 6 7 8 8 7 5 3 2 2 2 2
7 7 7 7 7 8 9 10 11 10 8 7 6 4 3 3 4 5 4 3 3 4 3 3 2 2 2 1 1 2 3 4 5 6 7 7 6 4 2 1 1 1 1
6 6 6 7 8 8 9 10 9 8 6 6 5 4 3 3 3 4 4 5 5 4 4 3 2 2 3 3 2 2 2 3 3 4 5 4 3 3 2 1 0 0 0
6 6 6 6 8 9 10 9 8 6 5 4 4 3 3 3 2 3 4 4 4 4 3 3 3 3 2 2 2 1 1 1 1 1 1 1 1 2 2 1 0 0 0
6 6 6 6 7 9 10 9 6 4 4 3 3 3 3 2 2 3 3 3 3 3 3 2 2 2 1 1 1 0 0 0 0 0 0 0 0 1 1 1 0 0 0
6 6 6 6 7 9 10 8 5 4 3 3 3 3 2 1 1 2 3 3 3 3 2 1 1 1 0 0 0 0 0 0 0 0 0 0 0 0 1 1 1 0 0
Wind_Speed
8 7 7 7 7 7 6 5 5 4 4 4 3 3 3 3 3 3 3 3 3 3 3 3 3 3 2 3 3 3 3 3 4 2 1 0 2 4 2 3 4 4 3
8 7 7 7 7 7 6 6 5 4 4 4 3 4 4 4 4 4 4 3 4 4 4 4 4 3 3 3 3 3 3 3 4 4 2 2 3 3 3 4 4 3 3
8 8 7 7 7 7 6 6 5 5 4 4 4 4 4 4 4 4 5 5 5 5 5 4 4 3 4 3 4 4 3 3 3 4 4 2 3 2 3 4 4 3 4
8 8 7 7 7 7 6 6 5 5 5 5 4 4 4 4 5 5 5 5 5 5 5 4 4 4 4 4 4 4 4 4 4 5 4 3 3 2 3 4 3 3 4
8 7 7 7 6 6 6 6 5 5 5 5 5 4 5 4 4 4 5 6 5 5 4 4 4 3 3 4 4 3 4 4 4 4 4 3 3 2 3 3 4 3 3
7 7 6 6 6 6 6 5 5 5 5 4 4 4 4 3 2 2 4 4 5 4 4 4 4 5 4 5 4 4 5 5 5 5 4 4 4 4 3 4 4 4 3
7 6 5 5 6 5 5 5 5 5 5 4 4 4 4 2 3 4 4 5 5 4 4 5 5 2 4 5 5 7 7 7 6 6 6 6 5 4 4 5 4 5 5
6 5 5 5 5 4 4 4 4 4 4 4 4 4 3 3 4 4 4 6 5 5 5 5 5 3 3 4 5 5 6 6 6 7 6 6 6 4 5 6 5 6 6
5 5 5 5 5 5 5 4 4 3 3 3 3 3 3 3 3 3 4 5 4 5 5 5 5 5 2 3 5 5 6 5 5 5 5 5 5 5 5 5 5 5 5
4 4 4 4 5 4 4 3 3 3 3 3 2 2 2 2 3 3 4 4 3 4 4 4 3 3 2 3 5 5 6 5 5 4 5 6 7 7 8 7 6 6 6
4 4 4 4 4 4 3 3 3 3 2 2 2 2 2 2 3 4 4 3 3 3 3 3 1 3 3 4 6 5 5 6 6 6 5 5 5 4 5 6 5 6 6
5 4 4 4 4 4 4 3 3 3 3 3 2 2 2 2 2 3 5 4 4 3 3 3 0 3 4 6 5 4 5 7 6 5 5 5 4 4 4 5 5 6 6
5 4 4 4 3 3 3 3 3 3 2 2 2 2 1 1 3 5 6 6 5 4 3 1 2 2 5 6 6 6 6 5 5 5 5 5 4 4 4 4 5 6 7
5 4 4 4 4 3 2 2 2 2 2 2 2 2 1 1 1 2 3 4 5 5 4 3 5 5 5 4 3 4 4 4 5 5 5 5 4 4 4 4 4 5 5
4 4 4 4 3 3 2 1 1 1 1 1 1 2 2 2 1 2 1 1 1 1 3 3 3 3 3 3 3 3 3 3 4 4 5 5 5 4 4 4 4 5 6
3 3 3 3 3 3 3 3 4 3 4 3 2 2 1 2 1 1 1 1 1 1 3 3 3 3 4 4 4 3 3 3 4 5 5 5 5 5 5 5 4 5 6
2 2 2 3 3 3 3 3 3 3 3 3 2 1 1 0 1 0 1 1 1 2 2 2 3 3 4 4 4 4 3 3 3 4 5 5 6 6 5 5 5 6 6
1 2 2 2 2 2 2 2 2 2 2 2 3 3 2 2 2 1 1 1 2 2 2 2 3 3 3 4 4 4 4 4 4 4 5 5 5 6 6 6 5 6 6
1 1 2 2 2 1 2 2 2 2 1 1 1 3 4 4 4 3 2 2 2 1 1 2 2 3 3 3 4 4 4 5 5 5 5 5 5 6 6 6 6 6 7
2 1 1 2 2 2 2 1 2 2 2 1 1 0 1 1 1 1 2 2 2 2 2 2 3 3 3 3 4 4 4 4 5 5 5 5 5 5 6 7 6 6 6
2 2 3 3 2 2 1 2 2 2 2 1 1 1 1 2 1 1 1 1 2 2 2 2 3 3 3 3 4 4 5 5 5 5 5 5 6 6 5 5 6 6 6
2 2 2 2 2 1 1 1 2 2 1 1 0 2 2 2 1 1 1 1 1 2 3 3 3 3 3 4 4 5 5 5 5 5 5 6 5 6 6 6 6 6 6
3 3 3 2 2 2 2 2 2 2 1 1 1 0 1 1 1 1 1 2 2 2 3 3 3 4 4 4 4 4 4 5 5 6 6 6 6 6 6 7 7 7 7
2 3 3 2 2 2 2 2 2 1 1 1 1 1 1 1 1 1 2 2 2 2 2 3 3 4 6 5 4 4 4 5 7 6 8 8 8 7 7 7 8 8 7
3 2 2 2 2 2 2 2 2 1 1 1 1 1 1 1 1 1 1 1 2 2 3 3 3 3 5 6 6 5 5 5 5 8 8 7 8 8 8 8 7 8 7
3 3 2 2 2 2 2 2 2 2 2 2 1 1 1 1 1 1 1 1 2 2 2 2 3 5 6 5 5 5 3 4 4 6 8 7 7 7 7 6 8 7 7
Wind_Direction
199 200 202 199 199 201 206 213 216 224 222 222 225 222 219 219 217 219 233 209 218 224 232 226 237 267 262 254 251 255 255 260 263 266 270 245 246 269 258 255 247 240 195
197 197 200 202 205 206 203 205 207 210 214 213 217 215 216 213 213 211 220 217 222 228 229 230 234 235 243 261 260 258 259 256 261 264 261 246 236 240 251 260 258 250 248
191 193 194 198 200 205 205 200 199 204 209 211 207 210 216 220 214 209 211 214 220 232 235 232 237 240 247 255 259 260 257 250 253 257 257 250 248 245 246 252 254 260 257
189 192 195 201 203 203 200 200 200 202 204 207 209 210 211 220 221 216 212 215 220 228 233 236 238 236 239 249 250 254 261 262 253 258 260 252 244 242 254 260 255 243 260
190 194 198 201 202 202 200 202 200 200 203 204 206 209 213 217 223 221 218 216 217 224 227 233 236 239 265 269 277 269 261 258 252 252 259 258 253 251 260 268 272 265 252
194 197 196 197 197 200 199 195 193 198 202 202 209 213 218 218 160 200 230 222 218 222 232 238 227 213 219 228 258 278 284 271 276 273 267 270 267 262 267 272 279 276 269
190 192 191 196 198 198 192 186 189 193 194 202 208 211 211 193 171 191 222 228 223 228 236 245 252 213 221 233 221 225 237 244 256 271 281 284 280 270 269 265 268 277 282
182 185 188 191 191 187 182 183 187 194 199 206 210 212 205 182 170 193 221 226 230 234 236 237 247 249 252 261 255 248 249 237 233 244 265 275 281 285 266 267 270 260 257
175 180 179 179 177 173 174 179 185 191 198 205 202 206 203 177 157 185 218 226 224 233 239 236 242 243 242 260 255 255 261 259 228 229 259 271 286 273 266 265 260 261 265
171 175 173 173 168 170 171 178 177 181 190 203 191 191 190 191 168 183 222 229 227 234 233 228 225 259 268 260 258 260 264 270 275 245 236 237 240 230 221 244 262 268 275
152 160 163 164 163 162 162 164 166 167 169 186 186 193 190 196 182 187 217 244 244 248 249 246 186 160 224 247 260 266 274 280 268 260 253 248 237 236 230 234 253 268 276
154 161 161 163 165 154 153 155 160 164 167 178 184 204 195 181 191 200 205 231 280 258 265 272 159 170 218 235 244 264 269 267 265 263 264 263 260 255 252 252 249 255 266
152 156 158 154 156 151 155 159 167 174 185 185 190 201 212 201 178 185 197 207 226 245 263 312 291 239 234 223 228 246 253 259 270 271 271 273 276 276 276 263 251 243 249
152 158 160 158 155 149 163 172 182 185 192 194 207 217 216 205 217 203 198 192 200 220 244 231 226 232 240 260 246 227 242 263 273 275 279 283 287 279 268 272 272 268 266
152 162 166 157 147 145 146 140 177 127 133 210 228 235 247 244 23 9 312 287 291 313 280 254 249 245 245 251 260 263 263 259 263 276 282 285 283 278 273 269 265 267 266
160 169 169 161 158 166 157 135 75 89 91 78 28 326 47 62 90 72 54 39 329 290 267 259 273 278 279 281 282 278 270 272 279 279 279 281 281 279 279 278 275 271 272
161 164 157 152 155 169 172 164 151 137 128 109 85 47 50 97 121 194 250 239 228 207 240 269 278 282 288 292 292 295 298 294 288 283 282 282 280 277 275 276 274 275 276
151 147 154 143 153 166 171 175 175 174 161 153 147 155 178 197 210 231 227 195 189 190 251 278 289 295 298 303 305 307 303 299 293 292 290 287 286 286 284 283 280 282 285
150 147 146 140 153 161 170 177 176 183 180 159 143 140 166 184 186 192 197 249 280 276 280 289 299 303 307 310 309 306 304 304 308 301 293 293 295 294 291 289 285 280 276
137 125 160 152 156 165 174 182 186 186 194 191 163 96 131 171 181 167 209 256 277 294 300 304 316 318 314 308 302 302 300 296 296 295 301 302 297 295 295 293 291 289 284
162 158 181 178 169 172 185 195 206 207 193 198 161 92 286 242 234 250 250 250 270 287 303 312 313 307 303 296 299 301 299 301 308 311 309 306 304 302 298 294 293 292 293
196 183 177 171 163 175 196 197 208 214 197 198 200 138 194 258 281 285 290 294 300 305 304 299 298 305 315 317 314 311 309 314 316 312 308 307 303 298 297 295 296 296 289
210 196 185 181 172 173 203 218 221 214 200 205 218 209 220 265 283 298 304 323 338 330 322 320 319 327 334 328 321 314 312 315 314 313 307 301 301 301 299 297 295 293 289
209 205 192 186 188 199 202 215 224 225 219 218 225 237 241 244 267 292 315 344 344 333 325 323 326 335 335 329 322 324 346 341 321 308 303 301 299 298 295 294 292 290 288
209 205 204 207 207 209 209 213 219 230 240 241 240 244 250 258 270 307 335 337 323 321 322 319 325 333 335 332 333 343 5 345 318 311 300 295 295 296 294 293 291 291 290
196 195 203 207 210 208 210 216 220 233 243 245 240 240 262 267 269 288 295 302 308 323 330 333 339 338 332 330 350 354 338 315 305 299 295 294 294 295 299 295 293 290 290